Location: Chmeli�t?
(49.8978°N, 15.0526°E)
Time: 12:12:05
(UTC+00:00)

Cosmos 2322 Rocket - Pass Details

Date: 07 June 2020
Orbit: 833 x 850 km, 71.0° (Epoch: 13 July)

Event Time Altitude Azimuth Distance (km) Brightness Sun altitude
Exits shadow 01:29:27 13° 207° (SSW) 2,264 3.8 -10.0°
Maximum altitude 01:34:36 90° 116° (ESE) 841 2.2 -9.5°
Drops below altitude 10° 01:40:15 10° 29° (NNE) 2,454 6.2 -9.0°
Sets 01:42:42 0° 30° (NNE) 3,392 7.6 -8.7°
